Location: *
(35.8942°N, 23.3025°E)
Time: 22:24:14
(UTC+00:00)

CZ-4C R/B - Pass Details

Date: 21 September 2021
Orbit: 600 x 1402 km, 63.4° (Epoch: 22 October)

Event Time Altitude Azimuth Distance (km) Brightness Sun altitude
Exits shadow 01:40:22 24° 123° (ESE) 1,386 3.6 -30.8°
Maximum altitude 01:41:00 25° 110° (ESE) 1,377 3.7 -30.7°
Drops below altitude 10° 01:45:08 10° 56° (NE) 2,291 5.4 -30.0°
Sets 01:48:06 0° 44° (NE) 3,357 6.3 -29.4°
